START_TIME,STEP,MOV.,AL01,t_acc.,AL02,t_acc.,E37,t_acc.,H21,t_acc.
1979-07-18 23:08:10.190 ,0,0,0.,24.0,0.,24.0,1.,24.0,0.,24.0
1979-07-18 23:08:34.190 ,0,0,0.,24.0,1.,24.0,0.,24.0,0.,24.0
1979-07-18 23:08:58.190 ,3,1,0.,24.0,2.,24.0,1.,24.0,0.,24.0
1979-07-18 23:09:22.190 ,3,0,0.,24.0,0.,24.0,0.,24.0,0.,24.0
1979-07-18 23:09:46.190 ,2,1,1.,24.0,0.,24.0,0.,24.0,0.,24.0
1979-07-18 23:10:10.190 ,2,0,1.,24.0,0.,24.0,0.,24.0,0.,24.0
1979-07-18 23:10:34.190 ,1,1,0.,24.0,0.,24.0,0.,24.0,0.,24.0
1979-07-18 23:10:58.190 ,1,0,0.,24.0,0.,24.0,0.,24.0,0.,24.0
1979-07-18 23:11:22.190 ,0,1,1.,24.0,1.,24.0,0.,24.0,0.,24.0
1979-07-18 23:11:46.190 ,0,0,0.,24.0,0.,24.0,0.,24.0,0.,24.0
1979-07-18 23:12:10.190 ,0,1,0.,24.0,0.,24.0,0.,24.0,0.,24.0
1979-07-18 23:12:34.190 ,0,0,0.,24.0,0.,24.0,0.,24.0,0.,24.0
1979-07-18 23:12:58.790 ,1,1,0.,24.0,0.,24.0,0.,24.0,0.,24.0
1979-07-18 23:13:22.190 ,1,0,2.,24.0,0.,24.0,1.,24.0,0.,24.0
1979-07-18 23:19:22.190 ,0,0,21.,24.0,0.,24.0,0.,24.0,0.,24.0
1979-07-18 23:19:46.190 ,0,0,0.,24.0,0.,24.0,0.,24.0,0.,24.0
1979-07-18 23:20:10.190 ,5,1,1.,24.0,0.,24.0,0.,24.0,0.,24.0
1979-07-18 23:20:34.190 ,5,0,0.,24.0,0.,24.0,0.,24.0,0.,24.0
1979-07-18 23:20:34.190 ,0,0,0.,24.0,0.,24.0,0.,24.0,0.,24.0
1979-07-18 23:20:34.190 ,0,0,0.,24.0,0.,24.0,0.,24.0,0.,24.0
1979-07-18 23:20:58.190 ,4,1,1.,24.0,0.,24.0,0.,24.0,0.,24.0
1979-07-18 23:21:22.190 ,4,0,0.,24.0,0.,24.0,1.,24.0,0.,24.0
1979-07-18 23:21:46.190 ,3,1,0.,24.0,1.,24.0,0.,24.0,0.,24.0
1979-07-18 23:22:10.190 ,3,0,1.,24.0,0.,24.0,0.,24.0,0.,24.0
1979-07-18 23:22:34.190 ,2,1,0.,24.0,0.,24.0,0.,24.0,0.,24.0
1979-07-18 23:22:58.190 ,2,0,1.,24.0,1.,24.0,0.,24.0,0.,24.0
1979-07-18 23:23:22.190 ,1,1,0.,24.0,0.,24.0,0.,24.0,0.,24.0
1979-07-18 23:23:46.190 ,1,0,0.,24.0,1.,24.0,1.,24.0,0.,24.0
1979-07-18 23:24:10.190 ,0,1,0.,24.0,0.,24.0,0.,24.0,0.,24.0
1979-07-18 23:24:34.190 ,0,0,0.,24.0,0.,24.0,0.,24.0,0.,24.0
1979-07-18 23:24:58.190 ,0,1,0.,24.0,0.,24.0,0.,24.0,0.,24.0
1979-07-18 23:25:22.190 ,0,0,0.,24.0,0.,24.0,0.,24.0,0.,24.0
1979-07-18 23:25:46.190 ,1,1,0.,24.0,0.,24.0,0.,24.0,0.,24.0
1979-07-18 23:26:10.190 ,1,0,0.,24.0,0.,24.0,0.,24.0,0.,24.0
1979-07-18 23:26:34.190 ,2,1,0.,24.0,0.,24.0,0.,24.0,0.,24.0
1979-07-18 23:26:58.190 ,2,0,0.,24.0,0.,24.0,0.,24.0,0.,24.0
1979-07-18 23:27:22.190 ,3,1,0.,24.0,0.,24.0,1.,24.0,0.,24.0
1979-07-18 23:27:46.190 ,3,0,0.,24.0,0.,24.0,0.,24.0,0.,24.0
1979-07-18 23:28:10.190 ,4,1,0.,24.0,0.,24.0,0.,24.0,0.,24.0
1979-07-18 23:28:34.190 ,4,0,1.,24.0,0.,24.0,0.,24.0,0.,24.0
1979-07-18 23:28:58.190 ,5,1,2.,24.0,0.,24.0,1.,24.0,0.,24.0
1979-07-18 23:29:22.190 ,5,0,1.,24.0,0.,24.0,0.,24.0,0.,24.0
1979-07-18 23:29:46.190 ,6,1,0.,24.0,0.,24.0,0.,24.0,0.,24.0
1979-07-18 23:30:10.190 ,6,0,1.,24.0,0.,24.0,0.,24.0,0.,24.0
1979-07-18 23:31:22.190 ,0,0,14.,24.0,1.,24.0,0.,24.0,0.,24.0
1979-07-18 23:31:46.190 ,1,1,0.,24.0,1.,24.0,0.,24.0,0.,24.0
1979-07-18 23:32:10.190 ,2,1,0.,24.0,0.,24.0,0.,24.0,0.,24.0
1979-07-18 23:32:34.190 ,6,1,0.,24.0,0.,24.0,0.,24.0,0.,24.0
1979-07-18 23:32:58.190 ,5,1,15.,24.0,1.,24.0,0.,24.0,0.,24.0
1979-07-18 23:33:22.190 ,1,1,0.,24.0,0.,24.0,0.,24.0,0.,24.0
1979-07-18 23:33:46.190 ,2,1,0.,24.0,0.,24.0,0.,24.0,0.,24.0
1979-07-18 23:34:10.190 ,6,1,0.,24.0,0.,24.0,1.,24.0,0.,24.0
1979-07-18 23:34:34.190 ,5,1,18.,24.0,0.,24.0,2.,24.0,0.,24.0
1979-07-18 23:34:58.190 ,1,1,1.,24.0,0.,24.0,0.,24.0,0.,24.0
1979-07-18 23:35:22.190 ,2,1,0.,24.0,0.,24.0,0.,24.0,0.,24.0
1979-07-18 23:35:46.190 ,6,1,0.,24.0,0.,24.0,1.,24.0,0.,24.0
1979-07-18 23:36:10.190 ,5,1,13.,24.0,1.,24.0,0.,24.0,0.,24.0
1979-07-18 23:36:34.190 ,1,1,1.,24.0,0.,24.0,0.,24.0,0.,24.0
1979-07-18 23:36:58.190 ,2,1,0.,24.0,0.,24.0,0.,24.0,0.,24.0
1979-07-18 23:37:22.190 ,6,1,2.,24.0,0.,24.0,0.,24.0,0.,24.0
1979-07-18 23:37:46.190 ,5,1,11.,24.0,0.,24.0,0.,24.0,0.,24.0
1979-07-18 23:38:10.190 ,1,1,0.,24.0,0.,24.0,0.,24.0,0.,24.0
1979-07-18 23:38:34.190 ,2,1,1.,24.0,0.,24.0,0.,24.0,0.,24.0
1979-07-18 23:38:58.190 ,6,1,2.,24.0,0.,24.0,0.,24.0,0.,24.0
1979-07-18 23:39:22.190 ,5,1,21.,24.0,0.,24.0,0.,24.0,0.,24.0
1979-07-18 23:39:46.190 ,1,1,0.,24.0,0.,24.0,0.,24.0,0.,24.0
1979-07-18 23:40:10.190 ,2,1,0.,24.0,1.,24.0,0.,24.0,0.,24.0
1979-07-18 23:40:34.190 ,6,1,1.,24.0,0.,24.0,0.,24.0,0.,24.0
1979-07-18 23:40:58.190 ,5,1,13.,24.0,0.,24.0,0.,24.0,0.,24.0
1979-07-18 23:41:22.190 ,1,1,0.,24.0,1.,24.0,0.,24.0,0.,24.0
1979-07-18 23:41:46.190 ,0,0,0.,24.0,0.,24.0,0.,24.0,0.,24.0
1979-07-18 23:42:10.190 ,0,0,2.,24.0,0.,24.0,1.,24.0,0.,24.0
1979-07-18 23:42:34.190 ,5,1,15.,24.0,0.,24.0,0.,24.0,0.,24.0
1979-07-18 23:42:58.190 ,5,0,0.,24.0,0.,24.0,0.,24.0,0.,24.0
1979-07-18 23:43:22.190 ,4,1,0.,24.0,0.,24.0,1.,24.0,0.,24.0
1979-07-18 23:43:46.190 ,4,0,0.,24.0,0.,24.0,0.,24.0,0.,24.0
1979-07-18 23:44:10.190 ,3,1,0.,24.0,0.,24.0,1.,24.0,0.,24.0
1979-07-18 23:44:34.190 ,3,0,0.,24.0,0.,24.0,0.,24.0,0.,24.0
1979-07-18 23:44:58.190 ,2,1,0.,24.0,0.,24.0,0.,24.0,0.,24.0
1979-07-18 23:45:22.190 ,2,0,0.,24.0,0.,24.0,0.,24.0,0.,24.0
1979-07-18 23:45:46.190 ,1,1,0.,24.0,0.,24.0,0.,24.0,0.,24.0
1979-07-18 23:46:10.190 ,1,0,0.,24.0,0.,24.0,0.,24.0,0.,24.0
1979-07-18 23:46:34.190 ,0,1,0.,24.0,1.,24.0,0.,24.0,0.,24.0
1979-07-18 23:46:58.190 ,0,0,2.,24.0,0.,24.0,0.,24.0,0.,24.0
1979-07-18 23:47:22.190 ,0,1,0.,24.0,0.,24.0,0.,24.0,0.,24.0
1979-07-18 23:47:46.190 ,0,0,1.,24.0,0.,24.0,1.,24.0,0.,24.0
1979-07-18 23:48:10.190 ,1,1,0.,24.0,0.,24.0,0.,24.0,0.,24.0
1979-07-18 23:48:34.190 ,1,0,0.,24.0,0.,24.0,1.,24.0,0.,24.0
1979-07-18 23:48:58.190 ,2,1,0.,24.0,0.,24.0,3.,24.0,0.,24.0
1979-07-18 23:49:22.190 ,2,0,0.,24.0,0.,24.0,0.,24.0,0.,24.0
1979-07-18 23:49:46.190 ,3,1,0.,24.0,0.,24.0,1.,24.0,0.,24.0
1979-07-18 23:50:10.190 ,3,0,0.,24.0,0.,24.0,0.,24.0,0.,24.0
1979-07-18 23:50:34.190 ,4,1,0.,24.0,0.,24.0,1.,24.0,0.,24.0
1979-07-18 23:50:58.190 ,4,0,1.,24.0,0.,24.0,0.,24.0,0.,24.0
1979-07-18 23:51:22.190 ,5,1,1.,24.0,0.,24.0,0.,24.0,0.,24.0
1979-07-18 23:51:46.190 ,5,0,1.,24.0,1.,24.0,0.,24.0,0.,24.0
1979-07-18 23:52:10.190 ,6,1,0.,24.0,0.,24.0,0.,24.0,0.,24.0
1979-07-18 23:52:34.190 ,6,0,2.,24.0,0.,24.0,0.,24.0,0.,24.0
1979-07-18 23:52:58.190 ,7,1,7.,24.0,0.,24.0,0.,24.0,0.,24.0
1979-07-18 23:53:22.190 ,7,0,36.,24.0,0.,24.0,0.,24.0,0.,24.0
1979-07-18 23:53:46.190 ,7,1,39.,24.0,0.,24.0,0.,24.0,0.,24.0
1979-07-18 23:54:10.190 ,7,0,34.,24.0,0.,24.0,1.,24.0,0.,24.0
1979-07-18 23:54:34.190 ,6,1,21.,24.0,0.,24.0,2.,24.0,0.,24.0
1979-07-18 23:54:58.190 ,6,0,0.,24.0,0.,24.0,1.,24.0,0.,24.0
1979-07-18 23:55:22.190 ,5,1,0.,24.0,1.,24.0,0.,24.0,0.,24.0
1979-07-18 23:55:46.190 ,5,0,0.,24.0,0.,24.0,0.,24.0,0.,24.0
1979-07-18 23:56:10.190 ,4,1,0.,24.0,0.,24.0,0.,24.0,0.,24.0
1979-07-18 23:56:34.190 ,4,0,0.,24.0,0.,24.0,0.,24.0,0.,24.0
1979-07-18 23:56:58.190 ,3,1,0.,24.0,0.,24.0,0.,24.0,0.,24.0
1979-07-18 23:57:22.190 ,3,0,0.,24.0,0.,24.0,1.,24.0,0.,24.0
1979-07-18 23:57:46.190 ,2,1,1.,24.0,0.,24.0,0.,24.0,0.,24.0
1979-07-18 23:58:10.190 ,2,0,1.,24.0,0.,24.0,0.,24.0,0.,24.0
1979-07-18 23:59:22.190 ,0,0,0.,24.0,0.,24.0,2.,24.0,0.,24.0
1979-07-18 23:59:46.190 ,0,0,0.,24.0,0.,24.0,1.,24.0,0.,24.0
